• In Uzbekistan
  • List of Countries
  • For 7 days
  • Water Temperature
  • Weather Map
  • Weather Widgets
  • user-avatar
    Login

    Hourly Weather Djelfa

    Today, 21 September, Saturday

    Time Temperature Precipitation Wind Pressure Humidity
    00:00 +26°C° 0 mm 9 mps 667 mmHg 28%
    01:00 +26°C° 0 mm 9 mps 667 mmHg 29%
    02:00 +24°C° 0 mm 8 mps 667 mmHg 29%
    03:00 +24°C° 0 mm 8 mps 667 mmHg 30%
    04:00 +23°C° 0 mm 6 mps 667 mmHg 33%
    05:00 +23°C° 0 mm 4 mps 667 mmHg 36%
    06:00 +23°C° 0 mm 2 mps 667 mmHg 39%
    07:00 +25°C° 0 mm 3 mps 667 mmHg 33%
    08:00 +27°C° 0 mm 4 mps 668 mmHg 26%
    09:00 +30°C° 0 mm 6 mps 669 mmHg 20%
    10:00 +30°C° 0 mm 7 mps 669 mmHg 19%
    11:00 +32°C° 0 mm 8 mps 668 mmHg 19%
    12:00 +33°C° 0 mm 8 mps 668 mmHg 18%
    13:00 +33°C° 0 mm 9 mps 668 mmHg 17%
    14:00 +34°C° 0 mm 9 mps 667 mmHg 15%
    15:00 +34°C° 0 mm 9 mps 667 mmHg 14%
    16:00 +33°C° 0 mm 7 mps 667 mmHg 15%
    17:00 +33°C° 0 mm 6 mps 667 mmHg 17%
    18:00 +32°C° 0 mm 4 mps 666 mmHg 19%
    19:00 +30°C° 0 mm 4 mps 666 mmHg 20%
    20:00 +29°C° 0 mm 3 mps 667 mmHg 22%
    21:00 +29°C° 0 mm 3 mps 667 mmHg 24%
    22:00 +28°C° 0 mm 3 mps 667 mmHg 24%
    23:00 +28°C° 0 mm 3 mps 667 mmHg 25%

    Tomorrow, 22 September, Sunday

    Time Temperature Precipitation Wind Pressure Humidity
    00:00 +28°C° 0 mm 3 mps 666 mmHg 26%
    01:00 +27°C° 0 mm 2 mps 666 mmHg 26%
    02:00 +26°C° 0 mm 2 mps 666 mmHg 26%
    03:00 +26°C° 0 mm 2 mps 666 mmHg 27%
    04:00 +26°C° 0 mm 3 mps 666 mmHg 26%
    05:00 +26°C° 0 mm 3 mps 666 mmHg 25%
    06:00 +26°C° 0 mm 4 mps 666 mmHg 24%
    07:00 +27°C° 0 mm 5 mps 667 mmHg 23%
    08:00 +29°C° 0 mm 6 mps 667 mmHg 22%
    09:00 +31°C° 0 mm 8 mps 668 mmHg 21%
    10:00 +31°C° 0 mm 8 mps 667 mmHg 23%
    11:00 +31°C° 0 mm 9 mps 667 mmHg 24%
    12:00 +31°C° 0 mm 10 mps 667 mmHg 25%
    13:00 +32°C° 0 mm 9 mps 667 mmHg 22%
    14:00 +33°C° 0 mm 8 mps 667 mmHg 19%
    15:00 +34°C° 0 mm 7 mps 667 mmHg 16%
    16:00 +33°C° 0 mm 5 mps 667 mmHg 17%
    17:00 +32°C° 0 mm 4 mps 667 mmHg 19%
    18:00 +31°C° 0 mm 2 mps 667 mmHg 21%
    19:00 +29°C° 0 mm 3 mps 667 mmHg 28%
    20:00 +28°C° 0 mm 3 mps 667 mmHg 34%
    21:00 +27°C° 0 mm 3 mps 667 mmHg 41%
    22:00 +27°C° 0 mm 3 mps 667 mmHg 38%
    23:00 +27°C° 0 mm 4 mps 667 mmHg 36%

    Day after tomorrow, 23 September, Monday

    Time Temperature Precipitation Wind Pressure Humidity
    00:00 +27°C° 0 mm 4 mps 667 mmHg 33%
    01:00 +26°C° 0 mm 3 mps 667 mmHg 37%
    02:00 +25°C° 0 mm 2 mps 666 mmHg 41%
    03:00 +24°C° 0 mm 1 mps 666 mmHg 46%
    04:00 +23°C° 0 mm 1 mps 666 mmHg 52%
    05:00 +22°C° 0 mm 1 mps 666 mmHg 58%
    06:00 +22°C° 0 mm 1 mps 666 mmHg 64%
    07:00 +23°C° 0 mm 1 mps 667 mmHg 58%
    08:00 +25°C° 0 mm 1 mps 668 mmHg 52%
    09:00 +26°C° 0 mm 1 mps 668 mmHg 46%
    10:00 +28°C° 0 mm 1 mps 669 mmHg 41%
    11:00 +29°C° 0 mm 2 mps 669 mmHg 36%
    12:00 +31°C° 0 mm 2 mps 669 mmHg 30%
    13:00 +31°C° 0 mm 2 mps 669 mmHg 29%
    14:00 +31°C° 0 mm 3 mps 668 mmHg 28%
    15:00 +33°C° 0 mm 3 mps 668 mmHg 27%
    16:00 +31°C° 0 mm 3 mps 668 mmHg 30%
    17:00 +30°C° 0 mm 3 mps 668 mmHg 32%
    18:00 +29°C° 0 mm 4 mps 667 mmHg 35%
    19:00 +28°C° 0 mm 3 mps 668 mmHg 37%
    20:00 +27°C° 0 mm 2 mps 668 mmHg 40%
    21:00 +27°C° 0 mm 1 mps 668 mmHg 42%
    22:00 +26°C° 0 mm 1 mps 668 mmHg 43%
    23:00 +25°C° 0 mm 1 mps 668 mmHg 45%

    24 September, Tuesday

    Time Temperature Precipitation Wind Pressure Humidity
    00:00 +25°C° 0 mm 1 mps 668 mmHg 46%
    01:00 +24°C° 0 mm 1 mps 667 mmHg 47%
    02:00 +24°C° 0 mm 1 mps 667 mmHg 47%
    03:00 +23°C° 0 mm 1 mps 667 mmHg 48%
    04:00 +23°C° 0 mm 1 mps 667 mmHg 49%
    05:00 +23°C° 0 mm 1 mps 667 mmHg 50%
    06:00 +20°C° 0 mm 0 mps 667 mmHg 51%
    07:00 +22°C° 0 mm 0 mps 667 mmHg 45%
    08:00 +26°C° 0 mm 1 mps 668 mmHg 39%
    09:00 +28°C° 0 mm 1 mps 669 mmHg 33%
    10:00 +29°C° 0 mm 2 mps 669 mmHg 29%
    11:00 +31°C° 0 mm 2 mps 669 mmHg 26%
    12:00 +33°C° 0 mm 3 mps 669 mmHg 23%
    13:00 +33°C° 0 mm 4 mps 669 mmHg 23%
    14:00 +34°C° 0 mm 4 mps 668 mmHg 22%
    15:00 +34°C° 0 mm 5 mps 668 mmHg 22%
    16:00 +32°C° 0 mm 4 mps 668 mmHg 25%
    17:00 +30°C° 0 mm 4 mps 667 mmHg 28%
    18:00 +29°C° 0 mm 3 mps 667 mmHg 31%
    19:00 +28°C° 0 mm 3 mps 667 mmHg 33%
    20:00 +27°C° 0 mm 3 mps 668 mmHg 35%
    21:00 +27°C° 0 mm 2 mps 668 mmHg 36%
    22:00 +26°C° 0 mm 2 mps 667 mmHg 38%
    23:00 +25°C° 0 mm 1 mps 667 mmHg 40%

    25 September, Wednesday

    Time Temperature Precipitation Wind Pressure Humidity
    00:00 +24°C° 0 mm 1 mps 666 mmHg 42%
    01:00 +24°C° 0 mm 1 mps 666 mmHg 43%
    02:00 +24°C° 0 mm 1 mps 666 mmHg 43%
    03:00 +23°C° 0 mm 1 mps 666 mmHg 44%
    04:00 +23°C° 0 mm 1 mps 666 mmHg 45%
    05:00 +23°C° 0 mm 1 mps 666 mmHg 46%
    06:00 +23°C° 0 mm 1 mps 666 mmHg 47%
    07:00 +24°C° 0 mm 1 mps 667 mmHg 43%
    08:00 +26°C° 0 mm 2 mps 667 mmHg 38%
    09:00 +28°C° 0 mm 2 mps 668 mmHg 33%
    10:00 +29°C° 0 mm 3 mps 668 mmHg 29%
    11:00 +30°C° 0 mm 4 mps 668 mmHg 25%
    12:00 +32°C° 0 mm 4 mps 668 mmHg 21%
    13:00 +33°C° 0 mm 5 mps 668 mmHg 20%
    14:00 +33°C° 0 mm 5 mps 667 mmHg 18%
    15:00 +33°C° 0 mm 6 mps 667 mmHg 17%
    16:00 +32°C° 0 mm 5 mps 667 mmHg 20%
    17:00 +30°C° 0 mm 5 mps 667 mmHg 22%
    18:00 +29°C° 0 mm 4 mps 666 mmHg 24%
    19:00 +28°C° 0 mm 4 mps 667 mmHg 26%
    20:00 +27°C° 0 mm 4 mps 667 mmHg 29%
    21:00 +26°C° 0 mm 3 mps 667 mmHg 32%
    22:00 +25°C° 0 mm 2 mps 667 mmHg 34%
    23:00 +24°C° 0 mm 1 mps 667 mmHg 37%

    26 September, Thursday

    Time Temperature Precipitation Wind Pressure Humidity
    00:00 +21°C° 0 mm 0 mps 666 mmHg 39%
    01:00 +21°C° 0 mm 0 mps 666 mmHg 39%
    02:00 +23°C° 0 mm 1 mps 666 mmHg 39%
    03:00 +23°C° 0 mm 1 mps 666 mmHg 39%
    04:00 +22°C° 0 mm 1 mps 666 mmHg 39%
    05:00 +22°C° 0 mm 1 mps 666 mmHg 39%
    06:00 +22°C° 0 mm 1 mps 666 mmHg 39%
    07:00 +24°C° 0 mm 1 mps 667 mmHg 35%
    08:00 +26°C° 0 mm 1 mps 668 mmHg 30%
    09:00 +28°C° 0 mm 1 mps 669 mmHg 25%
    10:00 +29°C° 0 mm 1 mps 669 mmHg 24%
    11:00 +30°C° 0 mm 2 mps 669 mmHg 22%
    12:00 +31°C° 0 mm 2 mps 669 mmHg 21%
    13:00 +33°C° 0 mm 3 mps 669 mmHg 20%
    14:00 +33°C° 0 mm 3 mps 668 mmHg 20%
    15:00 +33°C° 0 mm 4 mps 668 mmHg 19%
    16:00 +32°C° 0 mm 4 mps 668 mmHg 21%
    17:00 +30°C° 0 mm 4 mps 668 mmHg 22%
    18:00 +29°C° 0 mm 4 mps 667 mmHg 23%
    19:00 +28°C° 0 mm 3 mps 668 mmHg 24%
    20:00 +27°C° 0 mm 3 mps 668 mmHg 26%
    21:00 +26°C° 0 mm 2 mps 668 mmHg 27%
    22:00 +26°C° 0 mm 2 mps 668 mmHg 28%
    23:00 +25°C° 0 mm 2 mps 668 mmHg 29%
    Show more